星链-32925 (STARLINK-32925)

导读 | 豆包AI

STARLINK-32925是美国SpaceX星链星座的成员卫星,于2025年2月23日发射升空。星链计划旨在构建全球低轨互联网卫星星座,为全球各地提供高速宽带互联网服务。该卫星部署在近地轨道,延续了星链星座标准化设计理念,单颗重约数百千克,支持全球偏远地区网络覆盖、海事与航空互联网接入等服务,进一步扩充了星链星座的服务覆盖能力。

基本信息
目录编号:
63091
目录名称:
STARLINK-32925
国际标识:
2025-037Q
轨道中心:
EARTH
卫星名称:
星链-32925
卫星全名:
星链-32925 (STARLINK-32925)
卫星状态:
在轨 (已飞行430 天)
发射日期:
2025-02-23 UTC
国别 :
美国 (US)
星等 :
--
轨道信息
数据来源 国际轨道数据
星历时间: 2026-04-29T22:00:01+0800
7小时前
查看轨道信息
半长轴: 6950.214km
偏心率: 0.0003525
轨道倾角: 70.001°
近地点辐角 271.826°
升交点赤经 225.965°
平近点角 300.325°
近地点: 569.627km
远地点: 574.527km
周期: 96.107分钟
每日圈数: 14.983233
详细信息
固有亮度:
5
最大亮度:
2.5
卫星平台:
Starlink V1.0
覆盖范围:
全球
运营商:
太空探索技术公司
运营商所在国:
美国
制造商(研发单位):
太空探索技术公司
制造商所在国:
美国
使用方式:
暂无
卫星简介
Starlink 计划是 SpaceX 推出的全球卫星互联网项目,通过发射低轨道卫星,为全球尤其是偏远地区提供高速、低延迟的互联网服务。自 2019 年起,Starlink 已部署数千颗卫星,旨在缩小全球数字鸿沟,推动互联网普及。该项目还为军事、航空等行业提供通信支持,带来广泛经济效益。
2D轨道图
3D轨道图
轨道高度分析图
轨道倾角分析图
轨道综合分析图
查看轨道综合分析图